TimeEDT,TemperatureF,Dew PointF,Humidity,Sea Level PressureIn,VisibilityMPH,Wind Direction,Wind SpeedMPH,Gust SpeedMPH,PrecipitationIn,Events,Conditions,WindDirDegrees,DateUTC
12:15 AM,52.2,27.5,39,30.05,10.0,Calm,Calm,-,N/A,,Clear,0,2013-03-31 04:15:00
12:35 AM,52.2,33.8,50,30.05,10.0,Calm,Calm,-,N/A,,Scattered Clouds,0,2013-03-31 04:35:00
12:55 AM,52.2,30.2,43,30.04,10.0,Calm,Calm,-,N/A,,Scattered Clouds,0,2013-03-31 04:55:00
1:15 AM,51.8,30.7,45,30.03,10.0,SW,3.5,-,N/A,,Clear,220,2013-03-31 05:15:00
1:35 AM,49.1,34.2,56,30.03,10.0,Calm,Calm,-,N/A,,Clear,0,2013-03-31 05:35:00
1:55 AM,47.3,28.8,49,30.03,10.0,Calm,Calm,-,N/A,,Clear,0,2013-03-31 05:55:00
2:15 AM,46.4,27.9,48,30.02,10.0,Calm,Calm,-,N/A,,Clear,0,2013-03-31 06:15:00
2:35 AM,46.4,27.3,47,30.02,10.0,Calm,Calm,-,N/A,,Scattered Clouds,0,2013-03-31 06:35:00
2:55 AM,46.6,30.6,54,30.01,10.0,Calm,Calm,-,N/A,,Mostly Cloudy,0,2013-03-31 06:55:00
3:15 AM,48.0,33.4,57,30.00,10.0,Calm,Calm,-,N/A,,Overcast,0,2013-03-31 07:15:00
3:35 AM,49.6,35.6,59,29.99,10.0,Calm,Calm,-,N/A,,Overcast,0,2013-03-31 07:35:00
3:55 AM,50.0,36.5,60,30.00,10.0,Calm,Calm,-,N/A,Rain,Rain,0,2013-03-31 07:55:00
4:15 AM,48.4,34.2,58,29.99,10.0,Calm,Calm,-,0.01,Rain,Light Rain,0,2013-03-31 08:15:00
4:35 AM,47.5,35.1,62,29.98,7.0,Calm,Calm,-,0.03,Rain,Rain,0,2013-03-31 08:35:00
4:55 AM,47.3,39.9,76,29.97,4.0,Calm,Calm,-,0.06,Rain,Rain,0,2013-03-31 08:55:00
5:15 AM,47.7,40.3,76,29.96,4.0,Calm,Calm,-,0.04,Rain,Rain,0,2013-03-31 09:15:00
5:35 AM,47.7,41.9,80,29.95,4.0,Calm,Calm,-,0.08,Rain,Rain,0,2013-03-31 09:35:00
5:55 AM,48.2,43.5,84,29.94,4.0,East,3.5,-,0.11,Rain,Rain,80,2013-03-31 09:55:00
6:15 AM,48.2,44.2,86,29.93,4.0,Calm,Calm,-,0.02,Rain,Light Rain,0,2013-03-31 10:15:00
6:35 AM,48.2,44.4,87,29.92,4.0,Calm,Calm,-,0.03,,Drizzle,0,2013-03-31 10:35:00
6:55 AM,48.2,44.2,86,29.93,5.0,Calm,Calm,-,0.03,,Light Drizzle,0,2013-03-31 10:55:00
7:15 AM,48.4,44.6,87,29.92,4.0,Calm,Calm,-,N/A,,Drizzle,0,2013-03-31 11:15:00
7:35 AM,48.6,44.8,87,29.92,4.0,Calm,Calm,-,N/A,,Drizzle,0,2013-03-31 11:35:00
7:55 AM,48.7,45.1,87,29.92,3.0,Calm,Calm,-,0.01,,Light Drizzle,0,2013-03-31 11:55:00
8:15 AM,48.2,44.8,88,29.92,1.8,Calm,Calm,-,N/A,,Light Drizzle,0,2013-03-31 12:15:00
8:55 AM,49.1,45.7,88,29.90,1.8,SSE,3.5,-,N/A,,Overcast,160,2013-03-31 12:55:00
9:15 AM,49.5,46.4,89,29.90,1.8,SSE,3.5,-,N/A,,Overcast,160,2013-03-31 13:15:00
9:35 AM,49.6,46.6,89,29.90,1.2,Calm,Calm,-,N/A,,Overcast,0,2013-03-31 13:35:00
9:55 AM,49.6,46.8,90,29.90,0.5,SSE,4.6,-,N/A,Fog,Fog,160,2013-03-31 13:55:00
10:15 AM,49.6,46.8,90,29.90,0.2,SSE,3.5,-,N/A,Fog,Fog,160,2013-03-31 14:15:00
10:55 AM,50.5,47.7,90,29.90,0.8,SW,3.5,-,N/A,,Overcast,220,2013-03-31 14:55:00
11:15 AM,50.7,47.8,90,29.90,1.0,West,3.5,-,N/A,Rain,Light Rain,280,2013-03-31 15:15:00
11:35 AM,52.2,49.3,90,29.89,1.2,West,3.5,-,N/A,,Overcast,260,2013-03-31 15:35:00
11:55 AM,52.3,49.5,90,29.88,3.0,WSW,4.6,-,N/A,,Overcast,250,2013-03-31 15:55:00
12:15 PM,52.9,50.0,90,29.87,4.0,WSW,3.5,-,N/A,,Overcast,240,2013-03-31 16:15:00
12:55 PM,55.2,52.0,89,29.87,7.0,SW,5.8,-,N/A,,Overcast,230,2013-03-31 16:55:00
1:15 PM,55.9,52.9,89,29.86,10.0,SSW,5.8,-,N/A,,Overcast,210,2013-03-31 17:15:00
1:35 PM,56.3,52.3,87,29.85,10.0,SW,9.2,-,N/A,,Overcast,220,2013-03-31 17:35:00
1:55 PM,57.0,53.1,87,29.85,10.0,SW,4.6,-,N/A,,Overcast,230,2013-03-31 17:55:00
2:15 PM,57.6,53.8,87,29.84,10.0,WSW,6.9,-,N/A,,Overcast,240,2013-03-31 18:15:00
2:35 PM,57.4,52.7,84,29.84,10.0,SW,6.9,-,N/A,,Overcast,220,2013-03-31 18:35:00
2:55 PM,57.7,53.4,85,29.85,10.0,SW,5.8,-,N/A,,Overcast,230,2013-03-31 18:55:00
3:15 PM,60.1,54.9,83,29.85,10.0,SW,5.8,-,N/A,,Overcast,230,2013-03-31 19:15:00
3:35 PM,64.2,57.0,77,29.84,10.0,WSW,8.1,-,N/A,,Mostly Cloudy,240,2013-03-31 19:35:00
3:55 PM,64.4,52.9,66,29.84,10.0,West,5.8,18.4,N/A,,Scattered Clouds,270,2013-03-31 19:55:00
4:15 PM,63.0,52.3,68,29.83,10.0,West,8.1,-,N/A,,Overcast,260,2013-03-31 20:15:00
4:35 PM,63.5,53.4,70,29.83,10.0,West,6.9,-,N/A,,Mostly Cloudy,260,2013-03-31 20:35:00
4:55 PM,64.4,53.1,67,29.83,10.0,WSW,5.8,-,N/A,,Scattered Clouds,240,2013-03-31 20:55:00
5:15 PM,65.3,52.5,63,29.82,10.0,WNW,4.6,-,N/A,,Scattered Clouds,290,2013-03-31 21:15:00
5:55 PM,62.4,52.7,70,29.81,10.0,NW,3.5,-,N/A,,Scattered Clouds,320,2013-03-31 21:55:00
6:15 PM,60.3,50.9,71,29.82,10.0,Calm,Calm,-,N/A,,Mostly Cloudy,0,2013-03-31 22:15:00
6:35 PM,60.8,51.3,71,29.82,10.0,WSW,5.8,-,N/A,,Overcast,240,2013-03-31 22:35:00
6:55 PM,60.8,50.4,68,29.82,10.0,WSW,4.6,-,N/A,,Overcast,240,2013-03-31 22:55:00
7:15 PM,59.9,49.1,67,29.83,10.0,West,5.8,-,N/A,,Light Drizzle,260,2013-03-31 23:15:00
7:35 PM,59.0,48.9,69,29.82,10.0,Calm,Calm,-,N/A,Rain,Light Rain,0,2013-03-31 23:35:00
7:55 PM,57.2,50.2,77,29.81,10.0,Calm,Calm,-,N/A,Rain,Light Rain,0,2013-03-31 23:55:00
8:15 PM,55.4,47.5,75,29.81,10.0,Calm,Calm,-,0.01,,Overcast,0,2013-04-01 00:15:00
8:35 PM,54.9,46.2,73,29.82,10.0,Calm,Calm,-,0.01,,Overcast,0,2013-04-01 00:35:00
8:55 PM,55.0,47.1,75,29.83,10.0,Calm,Calm,-,0.01,,Overcast,0,2013-04-01 00:55:00
9:15 PM,55.6,47.5,74,29.83,10.0,Calm,Calm,-,N/A,,Overcast,0,2013-04-01 01:15:00
9:35 PM,55.4,46.6,72,29.83,10.0,Calm,Calm,-,N/A,,Overcast,0,2013-04-01 01:35:00
9:55 PM,54.7,46.0,73,29.83,10.0,Calm,Calm,-,N/A,,Overcast,0,2013-04-01 01:55:00
10:15 PM,53.8,45.7,74,29.84,10.0,Calm,Calm,-,N/A,,Overcast,0,2013-04-01 02:15:00
10:35 PM,54.7,47.5,77,29.84,10.0,Calm,Calm,-,N/A,,Overcast,0,2013-04-01 02:35:00
10:55 PM,54.9,48.2,78,29.84,10.0,Calm,Calm,-,N/A,,Overcast,0,2013-04-01 02:55:00
11:15 PM,55.0,48.6,79,29.84,10.0,Calm,Calm,-,N/A,,Overcast,0,2013-04-01 03:15:00
11:35 PM,54.7,48.4,79,29.84,10.0,Calm,Calm,-,N/A,,Overcast,0,2013-04-01 03:35:00
11:55 PM,54.7,48.7,80,29.85,10.0,Calm,Calm,-,N/A,Rain,Light Rain,0,2013-04-01 03:55:00